Location: Obersdorf
(47.4079°N, 10.2781°E)
Time: 10:42:11
(UTC+01:00)

XW-2C - Pass Details

Date: 10 December 2021
Orbit: 503 x 523 km, 97.5° (Epoch: 15 January)

Event Time Altitude Azimuth Distance (km) Brightness Sun altitude
Rises 06:20:47 0° 14° (NNE) 2,670 ? -15.2°
Reaches altitude 10° 06:22:54 10° 16° (NNE) 1,776 ? -14.8°
Maximum altitude 06:26:44 77° 102° (ESE) 544 ? -14.2°
Drops below altitude 10° 06:30:32 10° 189° (S) 1,756 ? -13.6°
Sets 06:32:37 0° 191° (S) 2,636 ? -13.3°
